EN

Hourly Weather Luis Moya

Today, 1 December, Tuesday

Time Temperature Precipitation Wind Pressure Humidity
00:00 +8°C° 0 mm 1 mps 599 mmHg 85%
01:00 +7°C° 0 mm 1 mps 599 mmHg 87%
02:00 +7°C° 0 mm 1 mps 598 mmHg 89%
03:00 +7°C° 0 mm 1 mps 598 mmHg 89%
04:00 +7°C° 0 mm 1 mps 598 mmHg 90%
05:00 +6°C° 0 mm 1 mps 598 mmHg 90%
06:00 +8°C° 0 mm 1 mps 599 mmHg 83%
07:00 +9°C° 0 mm 2 mps 599 mmHg 76%
08:00 +10°C° 0 mm 2 mps 600 mmHg 69%
09:00 +13°C° 0 mm 4 mps 601 mmHg 58%
10:00 +16°C° 0 mm 5 mps 601 mmHg 47%
11:00 +20°C° 0 mm 7 mps 601 mmHg 36%
12:00 +21°C° 0 mm 8 mps 601 mmHg 33%
13:00 +22°C° 0 mm 9 mps 600 mmHg 31%
14:00 +22°C° 0 mm 10 mps 600 mmHg 28%
15:00 +21°C° 0 mm 9 mps 599 mmHg 31%
16:00 +20°C° 0 mm 7 mps 599 mmHg 34%
17:00 +17°C° 0 mm 6 mps 598 mmHg 37%
18:00 +16°C° 0 mm 6 mps 598 mmHg 42%
19:00 +14°C° 0 mm 6 mps 599 mmHg 46%
20:00 +13°C° 0 mm 5 mps 599 mmHg 51%
21:00 +12°C° 0 mm 5 mps 599 mmHg 56%
22:00 +11°C° 0 mm 4 mps 598 mmHg 60%
23:00 +10°C° 0 mm 3 mps 598 mmHg 64%

Tomorrow, 2 December, Wednesday

Time Temperature Precipitation Wind Pressure Humidity
00:00 +10°C° 0 mm 3 mps 598 mmHg 68%
01:00 +9°C° 0 mm 3 mps 598 mmHg 71%
02:00 +9°C° 0 mm 3 mps 597 mmHg 75%
03:00 +8°C° 0 mm 2 mps 597 mmHg 78%
04:00 +7°C° 0 mm 2 mps 597 mmHg 81%
05:00 +7°C° 0 mm 1 mps 597 mmHg 84%
06:00 +9°C° 0 mm 1 mps 598 mmHg 76%
07:00 +11°C° 0 mm 1 mps 599 mmHg 68%
08:00 +13°C° 0 mm 1 mps 601 mmHg 60%
09:00 +15°C° 0 mm 1 mps 601 mmHg 48%
10:00 +18°C° 0 mm 1 mps 601 mmHg 36%
11:00 +19°C° 0 mm 1 mps 602 mmHg 23%
12:00 +20°C° 0 mm 1 mps 601 mmHg 21%
13:00 +21°C° 0 mm 1 mps 601 mmHg 19%
14:00 +22°C° 0 mm 1 mps 601 mmHg 16%
15:00 +19°C° 0 mm 2 mps 600 mmHg 20%
16:00 +18°C° 0 mm 2 mps 599 mmHg 23%
17:00 +16°C° 0 mm 2 mps 598 mmHg 26%
18:00 +15°C° 0 mm 1 mps 598 mmHg 29%
19:00 +14°C° 0 mm 1 mps 598 mmHg 32%
20:00 +12°C° 0 mm 1 mps 598 mmHg 35%
21:00 +12°C° 0 mm 1 mps 598 mmHg 36%
22:00 +11°C° 0 mm 1 mps 598 mmHg 38%
23:00 +11°C° 0 mm 1 mps 598 mmHg 40%

Day after tomorrow, 3 December, Thursday

Time Temperature Precipitation Wind Pressure Humidity
00:00 +11°C° 0 mm 1 mps 598 mmHg 42%
01:00 +10°C° 0 mm 2 mps 598 mmHg 44%
02:00 +9°C° 0 mm 2 mps 598 mmHg 47%
03:00 +9°C° 0 mm 2 mps 598 mmHg 52%
04:00 +8°C° 0 mm 2 mps 597 mmHg 56%
05:00 +8°C° 0 mm 1 mps 597 mmHg 61%
06:00 +9°C° 0 mm 2 mps 598 mmHg 57%
07:00 +12°C° 0 mm 2 mps 599 mmHg 54%
08:00 +13°C° 0 mm 2 mps 600 mmHg 51%
09:00 +15°C° 0 mm 4 mps 601 mmHg 43%
10:00 +17°C° 0 mm 6 mps 601 mmHg 36%
11:00 +20°C° 0 mm 7 mps 602 mmHg 29%
12:00 +21°C° 0 mm 7 mps 601 mmHg 26%
13:00 +21°C° 0 mm 7 mps 601 mmHg 24%
14:00 +22°C° 0 mm 8 mps 600 mmHg 22%
15:00 +20°C° 0 mm 7 mps 600 mmHg 25%
16:00 +19°C° 0 mm 6 mps 599 mmHg 28%
17:00 +16°C° 0 mm 5 mps 599 mmHg 31%
18:00 +15°C° 0 mm 4 mps 599 mmHg 35%
19:00 +14°C° 0 mm 4 mps 599 mmHg 39%
20:00 +12°C° 0 mm 4 mps 599 mmHg 42%
21:00 +12°C° 0 mm 3 mps 599 mmHg 45%
22:00 +11°C° 0 mm 3 mps 599 mmHg 47%
23:00 +10°C° 0 mm 3 mps 599 mmHg 50%

4 December, Friday

Time Temperature Precipitation Wind Pressure Humidity
00:00 +10°C° 0 mm 2 mps 598 mmHg 55%
01:00 +9°C° 0 mm 2 mps 598 mmHg 61%
02:00 +8°C° 0 mm 2 mps 597 mmHg 67%
03:00 +8°C° 0 mm 2 mps 597 mmHg 72%
04:00 +7°C° 0 mm 2 mps 597 mmHg 77%
05:00 +7°C° 0 mm 2 mps 597 mmHg 82%
06:00 +9°C° 0 mm 2 mps 598 mmHg 76%
07:00 +10°C° 0 mm 2 mps 599 mmHg 70%
08:00 +13°C° 0 mm 2 mps 600 mmHg 64%
09:00 +14°C° 0 mm 4 mps 601 mmHg 56%
10:00 +16°C° 0 mm 5 mps 601 mmHg 47%
11:00 +20°C° 0 mm 7 mps 601 mmHg 38%
12:00 +20°C° 0 mm 7 mps 601 mmHg 36%
13:00 +20°C° 0 mm 8 mps 600 mmHg 35%
14:00 +21°C° 0 mm 8 mps 600 mmHg 33%
15:00 +20°C° 0 mm 7 mps 599 mmHg 36%
16:00 +17°C° 0 mm 6 mps 599 mmHg 40%
17:00 +16°C° 0 mm 5 mps 599 mmHg 43%
18:00 +15°C° 0 mm 4 mps 599 mmHg 47%
19:00 +13°C° 0 mm 4 mps 600 mmHg 50%
20:00 +12°C° 0 mm 3 mps 600 mmHg 54%
21:00 +10°C° 0 mm 3 mps 600 mmHg 56%
22:00 +8°C° 0 mm 4 mps 599 mmHg 58%
23:00 +6°C° 0 mm 4 mps 599 mmHg 60%

5 December, Saturday

Time Temperature Precipitation Wind Pressure Humidity
00:00 +5°C° 0 mm 3 mps 599 mmHg 60%
01:00 +4°C° 0 mm 3 mps 598 mmHg 61%
02:00 +3°C° 0 mm 3 mps 598 mmHg 61%
03:00 +2°C° 0 mm 3 mps 598 mmHg 62%
04:00 +1°C° 0 mm 3 mps 598 mmHg 64%
05:00 +1°C° 0 mm 3 mps 598 mmHg 65%
06:00 +2°C° 0 mm 3 mps 598 mmHg 60%
07:00 +3°C° 0 mm 3 mps 599 mmHg 56%
08:00 +4°C° 0 mm 4 mps 600 mmHg 51%
09:00 +8°C° 0 mm 3 mps 601 mmHg 47%
10:00 +10°C° 0 mm 3 mps 601 mmHg 42%
11:00 +13°C° 0 mm 3 mps 602 mmHg 38%
12:00 +14°C° 0 mm 3 mps 601 mmHg 35%
13:00 +16°C° 0 mm 3 mps 601 mmHg 33%
14:00 +18°C° 0 mm 3 mps 601 mmHg 30%
15:00 +17°C° 0 mm 3 mps 600 mmHg 33%
16:00 +14°C° 0 mm 3 mps 600 mmHg 36%
17:00 +13°C° 0 mm 3 mps 599 mmHg 39%
18:00 +13°C° 0 mm 2 mps 600 mmHg 41%
19:00 +12°C° 0 mm 2 mps 600 mmHg 42%
20:00 +11°C° 0 mm 1 mps 600 mmHg 44%
21:00 +10°C° 0 mm 1 mps 600 mmHg 46%
22:00 +10°C° 0 mm 1 mps 600 mmHg 49%
23:00 +9°C° 0 mm 1 mps 600 mmHg 51%

6 December, Sunday

Time Temperature Precipitation Wind Pressure Humidity
00:00 +9°C° 0 mm 1 mps 599 mmHg 55%
01:00 +8°C° 0 mm 1 mps 599 mmHg 58%
02:00 +8°C° 0 mm 1 mps 599 mmHg 62%
03:00 +8°C° 0 mm 1 mps 599 mmHg 65%
04:00 +6°C° 0 mm 2 mps 599 mmHg 68%
05:00 +6°C° 0 mm 2 mps 599 mmHg 71%
06:00 +8°C° 0 mm 1 mps 600 mmHg 66%
07:00 +10°C° 0 mm 1 mps 601 mmHg 62%
08:00 +11°C° 0 mm 1 mps 602 mmHg 57%
09:00 +13°C° 0 mm 1 mps 602 mmHg 52%
10:00 +16°C° 0 mm 1 mps 603 mmHg 46%
11:00 +19°C° 0 mm 1 mps 603 mmHg 41%
12:00 +19°C° 0 mm 2 mps 603 mmHg 40%
13:00 +20°C° 0 mm 2 mps 602 mmHg 38%
14:00 +21°C° 0 mm 3 mps 602 mmHg 37%
15:00 +20°C° 0 mm 2 mps 601 mmHg 40%
16:00 +19°C° 0 mm 2 mps 601 mmHg 42%
17:00 +18°C° 0 mm 2 mps 601 mmHg 45%
18:00 +17°C° 0.1 mm 2 mps 601 mmHg 50%
19:00 +15°C° 0.1 mm 2 mps 601 mmHg 55%
20:00 +13°C° 0.1 mm 2 mps 601 mmHg 60%
21:00 +13°C° 0 mm 1 mps 601 mmHg 63%
22:00 +12°C° 0 mm 1 mps 600 mmHg 66%
23:00 +11°C° 0 mm 1 mps 600 mmHg 69%
Show more